| time (UTC) | temp C | wind direction | speed KPH | gust KPH | rain 1hr cm | rain 24hr cm | rain mn cm | humidity % | barometer mb |
| 20260505040030 | 20 | 345 | 1.6 | 4.8 | 0.00 | 0.00 | 0.00 | 66 | 1017.3 |
| 20260505034517 | 21 | 344 | 1.6 | 6.4 | 0.00 | 0.00 | 0.00 | 64 | 1017.2 |
| 20260505033033 | 21 | 346 | 1.6 | 8.0 | 0.00 | 0.00 | 0.00 | 63 | 1017.3 |
| 20260505031523 | 21 | 20 | 4.8 | 12.9 | 0.00 | 0.00 | 0.00 | 61 | 1017.2 |
| 20260505030027 | 22 | 15 | 4.8 | 11.3 | 0.00 | 0.00 | 0.00 | 61 | 1017.0 |
| 20260505024543 | 22 | 345 | 4.8 | 9.7 | 0.00 | 0.00 | 0.00 | 61 | 1017.0 |
| 20260505023033 | 22 | 359 | 9.7 | 19.3 | 0.00 | 0.00 | 0.00 | 60 | 1017.0 |
| 20260505021526 | 21 | 344 | 1.6 | 3.2 | 0.00 | 0.00 | 0.00 | 67 | 1016.7 |
| 20260505020025 | 21 | 346 | 0.0 | 1.6 | 0.00 | 0.00 | 0.00 | 68 | 1016.6 |
| 20260505014515 | 21 | 348 | 0.0 | 1.6 | 0.00 | 0.00 | 0.00 | 66 | 1016.5 |
| 20260505013019 | 21 | 352 | 0.0 | 1.6 | 0.00 | 0.00 | 0.00 | 68 | 1016.3 |
| 20260505011522 | 20 | 347 | 0.0 | 1.6 | 0.00 | 0.00 | 0.00 | 69 | 1016.1 |
| 20260505010026 | 21 | 344 | 1.6 | 1.6 | 0.00 | 0.00 | 0.00 | 62 | 1016.0 |
| 20260505004526 | 21 | 348 | 0.0 | 0.0 | 0.00 | 0.00 | 0.00 | 60 | 1015.8 |
| 20260505003017 | 22 | 348 | 0.0 | 1.6 | 0.00 | 0.00 | 0.00 | 57 | 1015.6 |
| 20260505001520 | 23 | 349 | 0.0 | 1.6 | 0.00 | 0.00 | 0.00 | 54 | 1015.3 |
| 20260505000025 | 23 | 1 | 0.0 | 3.2 | 0.00 | 0.00 | 0.00 | 55 | 1015.2 |
| 20260504234525 | 25 | 1 | 0.0 | 1.6 | 0.00 | 0.00 | 0.00 | 50 | 1015.1 |
| 20260504233014 | 25 | 357 | 0.0 | 3.2 | 0.00 | 0.00 | 0.00 | 48 | 1014.9 |
| 20260504231518 | 26 | 8 | 1.6 | 14.5 | 0.00 | 0.00 | 0.00 | 46 | 1014.8 |
| 20260504230023 | 26 | 8 | 3.2 | 11.3 | 0.00 | 0.00 | 0.00 | 43 | 1014.6 |
| 20260504224532 | 27 | 6 | 4.8 | 9.7 | 0.00 | 0.00 | 0.00 | 41 | 1014.6 |
| 20260504223025 | 28 | 39 | 4.8 | 11.3 | 0.00 | 0.00 | 0.00 | 39 | 1014.6 |
| 20260504221516 | 28 | 2 | 0.0 | 14.5 | 0.00 | 0.00 | 0.00 | 35 | 1014.6 |
| 20260504220022 | 28 | 347 | 3.2 | 14.5 | 0.00 | 0.00 | 0.00 | 28 | 1014.9 |
| 20260504214527 | 28 | 17 | 11.3 | 16.1 | 0.00 | 0.00 | 0.00 | 30 | 1014.7 |
| 20260504213026 | 28 | 349 | 6.4 | 17.7 | 0.00 | 0.00 | 0.00 | 30 | 1014.7 |
| 20260504211527 | 29 | 67 | 6.4 | 9.7 | 0.00 | 0.00 | 0.00 | 30 | 1014.7 |
| 20260504210032 | 29 | 359 | 6.4 | 11.3 | 0.00 | 0.00 | 0.00 | 27 | 1014.7 |
| 20260504204531 | 29 | 3 | 4.8 | 11.3 | 0.00 | 0.00 | 0.00 | 28 | 1014.9 |
| 20260504203028 | 29 | 1 | 6.4 | 16.1 | 0.00 | 0.00 | 0.00 | 28 | 1015.0 |
| 20260504201526 | 29 | 351 | 6.4 | 17.7 | 0.00 | 0.00 | 0.00 | 27 | 1015.1 |
| 20260504200018 | 28 | 344 | 1.6 | 12.9 | 0.00 | 0.00 | 0.00 | 28 | 1015.2 |
| 20260504194503 | 29 | 342 | 8.0 | 17.7 | 0.00 | 0.00 | 0.00 | 27 | 1015.5 |
| 20260504193003 | 28 | 359 | 3.2 | 14.5 | 0.00 | 0.00 | 0.00 | 28 | 1015.7 |
| 20260504191510 | 28 | 338 | 1.6 | 11.3 | 0.00 | 0.00 | 0.00 | 31 | 1016.0 |
| 20260504190014 | 28 | 321 | 4.8 | 12.9 | 0.00 | 0.00 | 0.00 | 29 | 1016.0 |
| 20260504184518 | 28 | 334 | 6.4 | 14.5 | 0.00 | 0.00 | 0.00 | 29 | 1016.2 |
| 20260504183008 | 28 | 347 | 6.4 | 14.5 | 0.00 | 0.00 | 0.00 | 32 | 1016.6 |
| 20260504181507 | 28 | 323 | 4.8 | 11.3 | 0.00 | 0.00 | 0.00 | 29 | 1017.0 |
| 20260504180011 | 27 | 8 | 6.4 | 12.9 | 0.00 | 0.00 | 0.00 | 32 | 1017.1 |
| 20260504174518 | 27 | 356 | 6.4 | 16.1 | 0.00 | 0.00 | 0.00 | 34 | 1017.4 |
| 20260504173023 | 27 | 352 | 8.0 | 17.7 | 0.00 | 0.00 | 0.00 | 34 | 1017.7 |
| 20260504171505 | 27 | 354 | 3.2 | 16.1 | 0.00 | 0.00 | 0.00 | 35 | 1017.6 |
| 20260504081508 | 15 | 338 | 0.0 | 1.6 | 0.00 | 0.00 | 0.00 | 83 | 1017.3 |
| 20260504050007 | 16 | 337 | 0.0 | 1.6 | 0.00 | 0.00 | 0.00 | 76 | 1018.7 |
| 20260504044517 | 16 | 347 | 0.0 | 1.6 | 0.00 | 0.00 | 0.00 | 76 | 1018.7 |
| 20260504043019 | 16 | 347 | 0.0 | 1.6 | 0.00 | 0.00 | 0.00 | 75 | 1018.9 |
| 20260504041538 | 16 | 347 | 0.0 | 1.6 | 0.00 | 0.00 | 0.00 | 75 | 1018.9 |